Location: Pinhead Observatory
(34.4473°N, 118.1985°W)
Time: 07:46:16
(UTC-07:00)

CZ-4C R/B - Visible Passes

Search period start: 23 April 2014 00:00
Search period end: 03 May 2014 00:00
Orbit: 799 x 1204 km, 63.4° (Epoch: 22 April)

Date Brightness Start Highest point End Pass type
(mag) Time Alt. Az. Time Alt. Az. Time Alt. Az.
23 Apr 4.6 03:04:49 10° N 03:10:41 28° NE 03:16:53 10° ESE visible
23 Apr 2.8 04:52:40 10° NW 04:59:39 61° WSW 05:07:04 10° SSE visible
23 Apr 4.7 20:13:43 10° W 20:18:15 25° NW 20:23:05 10° N visible
24 Apr 5.5 01:52:03 10° NNE 01:54:43 12° NE 01:57:27 10° ENE visible
24 Apr 3.4 03:37:51 10° NNW 03:44:45 56° NE 03:52:05 10° SE visible
24 Apr 3.6 05:27:09 10° NW 05:33:04 28° WSW 05:39:14 10° SSW visible
24 Apr 5.3 20:50:32 10° WNW 20:52:44 12° NW 20:55:00 10° NNW visible
25 Apr 4.8 02:23:52 10° N 02:29:19 24° NE 02:35:03 10° E visible
25 Apr 2.7 04:11:24 10° NW 04:18:29 74° WSW 04:26:01 10° SSE visible
26 Apr 5.5 01:12:21 10° NNE 01:13:12 10° NE 01:14:03 10° NE visible
26 Apr 3.7 02:56:46 10° NNW 03:03:29 46° NE 03:10:37 10° SE visible
26 Apr 3.4 04:45:38 10° NW 04:51:57 34° WSW 04:58:35 10° S visible
26 Apr 5.2 20:08:13 10° WNW 20:11:17 15° NW 20:14:29 10° N visible
27 Apr 4.9 01:42:58 10° N 01:47:56 20° NE 01:53:07 10° E visible
27 Apr 2.7 03:30:11 10° NNW 03:37:17 88° WSW 03:44:52 10° SSE visible
27 Apr 4.2 05:21:30 10° WNW 05:25:10 15° WSW 05:28:54 10° SW visible
28 Apr 3.9 02:15:43 10° NNW 02:22:11 39° NE 02:29:05 10° ESE visible
28 Apr 3.1 04:04:12 10° NW 04:10:50 42° WSW 04:14:22 27° SSW visible
29 Apr 5.0 01:02:09 10° N 01:06:30 17° NE 01:11:02 10° E visible
29 Apr 2.8 02:49:00 10° NNW 02:56:05 78° ENE 02:57:11 66° ESE visible
29 Apr 4.2 04:39:25 10° WNW 04:42:11 17° W 04:42:11 17° W visible
30 Apr 4.1 01:34:41 10° NNW 01:40:52 33° NE 01:42:42 29° ENE visible
30 Apr 3.3 03:22:50 10° NW 03:27:46 42° WNW 03:27:46 42° WNW visible
01 May 5.1 00:21:27 10° N 00:25:03 15° NE 00:28:47 10° ENE visible
01 May 3.2 02:07:51 10° NNW 02:13:57 61° NNE 02:13:57 61° NNE visible
01 May 4.5 03:57:37 10° WNW 03:59:04 15° WNW 03:59:04 15° WNW visible
02 May 4.3 00:53:41 10° N 00:59:32 28° NE 01:00:27 27° ENE visible
02 May 3.7 02:41:31 10° NW 02:45:35 37° NW 02:45:35 37° NW visible
02 May 5.1 23:40:57 10° NNE 23:43:34 12° NE 23:46:14 10° ENE visible
